• In Slovakia
  • List of Countries
  • For 7 days
  • Water Temperature
  • Satellite Maps
  • Weather Map
  • Weather Widgets
  • user-avatar
    Login

    Hourly Weather Mauritius

    Today, 16 January, Tuesday

    Time Temperature Precipitation Wind Pressure Humidity
    00:00 +26°C° 0.1 mm 11 mps 719 mmHg 76%
    01:00 +26°C° 0.1 mm 11 mps 719 mmHg 75%
    02:00 +26°C° 0.1 mm 11 mps 719 mmHg 74%
    03:00 +26°C° 0.1 mm 11 mps 718 mmHg 74%
    04:00 +26°C° 0 mm 11 mps 719 mmHg 74%
    05:00 +26°C° 0 mm 11 mps 719 mmHg 73%
    06:00 +26°C° 0 mm 11 mps 719 mmHg 72%
    07:00 +26°C° 0 mm 12 mps 719 mmHg 72%
    08:00 +26°C° 0 mm 12 mps 719 mmHg 71%
    09:00 +26°C° 0 mm 12 mps 719 mmHg 71%
    10:00 +27°C° 0 mm 11 mps 719 mmHg 68%
    11:00 +27°C° 0 mm 11 mps 719 mmHg 68%
    12:00 +27°C° 0 mm 11 mps 719 mmHg 68%
    13:00 +27°C° 0 mm 12 mps 718 mmHg 68%
    14:00 +27°C° 0.1 mm 12 mps 718 mmHg 70%
    15:00 +27°C° 0.1 mm 12 mps 718 mmHg 72%
    16:00 +26°C° 0 mm 12 mps 717 mmHg 75%
    17:00 +26°C° 0.3 mm 12 mps 717 mmHg 77%
    18:00 +26°C° 0.3 mm 12 mps 717 mmHg 79%
    19:00 +26°C° 0.3 mm 12 mps 717 mmHg 81%
    20:00 +26°C° 0.7 mm 12 mps 717 mmHg 81%
    21:00 +26°C° 0.7 mm 13 mps 717 mmHg 82%
    22:00 +24°C° 0.7 mm 13 mps 717 mmHg 83%
    23:00 +24°C° 1 mm 13 mps 717 mmHg 83%

    Tomorrow, 17 January, Wednesday

    Time Temperature Precipitation Wind Pressure Humidity
    00:00 +24°C° 1 mm 13 mps 717 mmHg 83%
    01:00 +24°C° 1 mm 13 mps 716 mmHg 84%
    02:00 +24°C° 1.1 mm 13 mps 716 mmHg 84%
    03:00 +24°C° 1.1 mm 13 mps 716 mmHg 84%
    04:00 +24°C° 1.1 mm 13 mps 715 mmHg 85%
    05:00 +24°C° 0.6 mm 14 mps 715 mmHg 85%
    06:00 +24°C° 0.6 mm 14 mps 715 mmHg 86%
    07:00 +26°C° 0.6 mm 14 mps 714 mmHg 86%
    08:00 +26°C° 0.8 mm 14 mps 714 mmHg 85%
    09:00 +26°C° 0.8 mm 14 mps 714 mmHg 84%
    10:00 +26°C° 0.8 mm 14 mps 713 mmHg 84%
    11:00 +26°C° 2.3 mm 14 mps 712 mmHg 85%
    12:00 +26°C° 2.3 mm 15 mps 712 mmHg 86%
    13:00 +26°C° 2.3 mm 15 mps 711 mmHg 87%
    14:00 +26°C° 4.8 mm 16 mps 710 mmHg 88%
    15:00 +24°C° 4.8 mm 16 mps 709 mmHg 88%
    16:00 +24°C° 4.8 mm 17 mps 708 mmHg 89%
    17:00 +25°C° 7.3 mm 18 mps 708 mmHg 88%
    18:00 +25°C° 7.3 mm 19 mps 708 mmHg 87%
    19:00 +25°C° 7.3 mm 20 mps 707 mmHg 86%
    20:00 +25°C° 15.6 mm 21 mps 707 mmHg 86%
    21:00 +25°C° 15.6 mm 22 mps 707 mmHg 86%
    22:00 +25°C° 15.6 mm 23 mps 707 mmHg 85%
    23:00 +25°C° 11.1 mm 24 mps 706 mmHg 87%

    Day after tomorrow, 18 January, Thursday

    Time Temperature Precipitation Wind Pressure Humidity
    00:00 +25°C° 11.1 mm 25 mps 706 mmHg 88%
    01:00 +25°C° 11.1 mm 26 mps 705 mmHg 90%
    02:00 +25°C° 3.7 mm 25 mps 705 mmHg 89%
    03:00 +27°C° 3.7 mm 24 mps 705 mmHg 88%
    04:00 +27°C° 3.7 mm 23 mps 704 mmHg 87%
    05:00 +27°C° 1.3 mm 22 mps 705 mmHg 85%
    06:00 +27°C° 1.3 mm 21 mps 706 mmHg 83%
    07:00 +27°C° 1.3 mm 20 mps 707 mmHg 82%
    08:00 +27°C° 0.7 mm 19 mps 707 mmHg 80%
    09:00 +27°C° 0.7 mm 17 mps 708 mmHg 79%
    10:00 +27°C° 0.7 mm 16 mps 709 mmHg 77%
    11:00 +27°C° 0.1 mm 15 mps 710 mmHg 76%
    12:00 +28°C° 0.1 mm 14 mps 710 mmHg 75%
    13:00 +29°C° 0.1 mm 13 mps 711 mmHg 74%
    14:00 +28°C° 0.3 mm 11 mps 711 mmHg 77%
    15:00 +28°C° 0.3 mm 10 mps 712 mmHg 79%
    16:00 +27°C° 0.3 mm 8 mps 712 mmHg 82%
    17:00 +27°C° 0.5 mm 8 mps 713 mmHg 83%
    18:00 +27°C° 0.5 mm 7 mps 713 mmHg 84%
    19:00 +26°C° 0.5 mm 7 mps 714 mmHg 85%
    20:00 +26°C° 0.2 mm 6 mps 715 mmHg 86%
    21:00 +26°C° 0.2 mm 6 mps 715 mmHg 86%
    22:00 +26°C° 0.2 mm 6 mps 716 mmHg 86%
    23:00 +26°C° 0.2 mm 6 mps 716 mmHg 86%

    19 January, Friday

    Time Temperature Precipitation Wind Pressure Humidity
    00:00 +26°C° 0.2 mm 6 mps 716 mmHg 86%
    01:00 +26°C° 0.2 mm 6 mps 716 mmHg 86%
    02:00 +26°C° 0.5 mm 6 mps 716 mmHg 86%
    03:00 +26°C° 0.5 mm 6 mps 715 mmHg 86%
    04:00 +26°C° 0.5 mm 6 mps 715 mmHg 86%
    05:00 +26°C° 0.2 mm 6 mps 716 mmHg 86%
    06:00 +26°C° 0.2 mm 6 mps 716 mmHg 86%
    07:00 +26°C° 0.2 mm 6 mps 717 mmHg 85%
    08:00 +27°C° 0.2 mm 6 mps 717 mmHg 83%
    09:00 +28°C° 0.2 mm 6 mps 717 mmHg 80%
    10:00 +28°C° 0.2 mm 6 mps 718 mmHg 78%
    11:00 +28°C° 0.4 mm 6 mps 717 mmHg 77%
    12:00 +29°C° 0.4 mm 6 mps 717 mmHg 76%
    13:00 +29°C° 0.4 mm 6 mps 717 mmHg 75%
    14:00 +29°C° 0.9 mm 6 mps 717 mmHg 75%
    15:00 +29°C° 0.9 mm 6 mps 717 mmHg 76%
    16:00 +28°C° 0.9 mm 5 mps 717 mmHg 76%
    17:00 +28°C° 0.9 mm 5 mps 717 mmHg 78%
    18:00 +28°C° 0.9 mm 5 mps 718 mmHg 80%
    19:00 +27°C° 0.9 mm 4 mps 718 mmHg 82%
    20:00 +27°C° 0.3 mm 4 mps 719 mmHg 83%
    21:00 +27°C° 0.3 mm 4 mps 720 mmHg 84%
    22:00 +26°C° 0.3 mm 4 mps 720 mmHg 86%
    23:00 +26°C° 0.1 mm 4 mps 720 mmHg 86%

    20 January, Saturday

    Time Temperature Precipitation Wind Pressure Humidity
    00:00 +26°C° 0.1 mm 4 mps 720 mmHg 86%
    01:00 +26°C° 0.1 mm 4 mps 720 mmHg 86%
    02:00 +26°C° 0.1 mm 4 mps 719 mmHg 87%
    03:00 +26°C° 0.1 mm 4 mps 719 mmHg 88%
    04:00 +26°C° 0.1 mm 5 mps 719 mmHg 88%
    05:00 +26°C° 0.2 mm 5 mps 719 mmHg 87%
    06:00 +26°C° 0.2 mm 5 mps 720 mmHg 86%
    07:00 +26°C° 0.2 mm 5 mps 720 mmHg 86%
    08:00 +27°C° 0.2 mm 5 mps 720 mmHg 83%
    09:00 +27°C° 0.2 mm 5 mps 720 mmHg 81%
    10:00 +28°C° 0.2 mm 5 mps 721 mmHg 79%
    11:00 +28°C° 0.2 mm 5 mps 720 mmHg 77%
    12:00 +28°C° 0.2 mm 4 mps 720 mmHg 76%
    13:00 +29°C° 0.2 mm 4 mps 719 mmHg 74%
    14:00 +29°C° 0.3 mm 4 mps 719 mmHg 74%
    15:00 +28°C° 0.3 mm 4 mps 719 mmHg 75%
    16:00 +28°C° 0.3 mm 3 mps 719 mmHg 75%
    17:00 +28°C° 0.3 mm 3 mps 719 mmHg 77%
    18:00 +27°C° 0.3 mm 3 mps 719 mmHg 79%
    19:00 +27°C° 0.3 mm 3 mps 719 mmHg 81%
    20:00 +27°C° 0.3 mm 4 mps 720 mmHg 83%
    21:00 +26°C° 0.3 mm 4 mps 720 mmHg 85%
    22:00 +26°C° 0.3 mm 4 mps 720 mmHg 86%
    23:00 +26°C° 0.7 mm 4 mps 720 mmHg 86%

    21 January, Sunday

    Time Temperature Precipitation Wind Pressure Humidity
    00:00 +26°C° 0.7 mm 4 mps 720 mmHg 86%
    01:00 +26°C° 0.7 mm 4 mps 719 mmHg 86%
    02:00 +26°C° 0.8 mm 4 mps 719 mmHg 86%
    03:00 +26°C° 0.8 mm 4 mps 719 mmHg 86%
    04:00 +25°C° 0.8 mm 4 mps 718 mmHg 86%
    05:00 +26°C° 0.4 mm 5 mps 719 mmHg 86%
    06:00 +26°C° 0.4 mm 5 mps 719 mmHg 86%
    07:00 +26°C° 0.4 mm 5 mps 720 mmHg 86%
    08:00 +26°C° 0.1 mm 6 mps 720 mmHg 83%
    09:00 +27°C° 0.1 mm 6 mps 720 mmHg 81%
    10:00 +28°C° 0.1 mm 6 mps 720 mmHg 78%
    11:00 +28°C° 0.4 mm 6 mps 719 mmHg 78%
    12:00 +28°C° 0.4 mm 6 mps 719 mmHg 78%
    13:00 +28°C° 0.4 mm 6 mps 718 mmHg 78%
    14:00 +28°C° 0.8 mm 6 mps 718 mmHg 78%
    15:00 +28°C° 0.8 mm 6 mps 718 mmHg 79%
    16:00 +27°C° 0.8 mm 6 mps 718 mmHg 79%
    17:00 +27°C° 0.7 mm 6 mps 718 mmHg 81%
    18:00 +27°C° 0.7 mm 6 mps 718 mmHg 82%
    19:00 +26°C° 0.7 mm 6 mps 719 mmHg 84%
    20:00 +26°C° 0.4 mm 6 mps 719 mmHg 85%
    21:00 +26°C° 0.4 mm 6 mps 719 mmHg 85%
    22:00 +26°C° 0.4 mm 6 mps 719 mmHg 86%
    23:00 +26°C° 0.3 mm 6 mps 719 mmHg 86%
    Show more